User: anonymous   Login
Location: Maiden_LMO
(35.5760°N, 81.2120°W)
Time: 12:41:05
(UTC-05:00)
Language:

Cosmos 2278 Rocket - Orbit

View from above orbital plane
View from above orbital plane
View from above satellite
View from above satellite

Ground track
Ground track

The orbit data is extracted from the following two-line orbital elements,

1 23088U 94023B   16338.47767558 -.00000168  00000-0 -62449-4 0  9995
2 23088  70.9989 332.8198 0002564 352.0758   8.0323 14.14645135167864
Epoch (UTC): 03 December 2016 11:27:51
Eccentricity: 0.0002564
inclination: 70.9989°
perigee height: 841 km
apogee height: 845 km
right ascension of ascending node: 332.8198°
argument of perigee: 352.0758°
revolutions per day: 14.14645135
mean anomaly at epoch: 8.0323°
orbit number at epoch: 16786

The dashed part of the orbit path shows where the satellite is in the earth's shadow,  

DLR